"Pseudo-MPEC" for P22pl3Z

Created 2026 Aug 16 1:35:28 UT using Find_Orb

Click here for an explanation of pseudo-MPECs

 
 Astrometry: 
     P22pl3Z*0C2026 08 13.48229323 38 23.712-12 51 26.33   ~8DEZ 21.50wXNEOCPF52
     P22pl3Z 0C2026 08 13.49308023 38 24.198-12 51 34.05   ~8DEZ 21.02wXNEOCPF52
     P22pl3Z 0C2026 08 13.50384023 38 24.696-12 51 41.45   ~8DEZ 21.15wXNEOCPF52
     P22pl3Z 0C2026 08 13.51460323 38 25.219-12 51 48.75   ~8DEZ 21.56wXNEOCPF52
     P22pl3Z 0C2026 08 13.61388723 38 29.811-12 52 57.70   ~8DL5 20.92GVNEOCPF52
     P22pl3Z 0C2026 08 13.61452023 38 29.829-12 52 57.92   ~8DL5 20.77GVNEOCPF52
     P22pl3Z KB2026 08 14.06631 23 38 53.55 -12 58 19.8    ~8E2o 20.4 VZNEOCP106
     P22pl3Z KB2026 08 14.07505 23 38 53.98 -12 58 26.2    ~8E2o 20.3 VZNEOCP106
     P22pl3Z KB2026 08 14.08379 23 38 54.37 -12 58 32.0    ~8E2o 20.2 VZNEOCP106
     P22pl3Z KB2026 08 14.09254 23 38 54.74 -12 58 38.3    ~8E2o 20.3 VZNEOCP106

Station data:
(106) Črni Vrh  (N45.945905 E14.071100)  Slovenia.  Observer J. Skvarč. 0.6-m
   f/3.3 Deltagraph + CCD.
(F52) Pan-STARRS 2, Haleakala  (N20.707382 W156.255910)  US/Hawaii.
   Observers J. Herman, T. Lowe, P. Minguez, A. Schultz, I. Smith. Measurers
   K. Chambers, T. de Boer, J. Fairlamb, H. Gao, M. Huber, C.-C. Lin, E.
   Magnier, Y. Ramanjooloo, R. Wainscoat, R. Weryk. 1.8-m Ritchey-Chrétien +
   CCD.

Orbital elements:  P22pl3Z
   Perihelion 2026 Aug 23.704752 +/- 40 TT = 16:54:50.5 (JD 2461276.204752)
Epoch 2026 Aug 14.0 TT = JDT 2461266.5   Earth MOID: 0.5751   Ju: 0.3969
M 358.434504269 +/- 9               (J2000 ecliptic)             AutoNEOCP
n   0.161312289 +/- 0.0431          Peri.  212.038442 +/- 32
a   3.342138259 +/- 0.595           Node   125.953927 +/- 2.9
e   0.52813277 +/- 0.0414           Incl.    8.743114 +/- 0.8
P   6.10994                H 19.88  G  0.15   U 10.6  SR
q 1.577045512 +/- 0.153    Q 5.107231006 +/- 0.922
From 10 observations 2026 Aug. 13-14 (14.6 hr); mean residual 0".24
Residuals in arcseconds: 
260813 F52  .22+  .09-    260813 F52  .18-  .08+    260814 106  .24+  .02+    
260813 F52  .02-  .24-    260813 F52  .35-  .29+    260814 106  .35-  .15-    
260813 F52  .06-  .10-    260814 106  .23+  .05-    
260813 F52  .28+  .13+    260814 106  .53+  .31-    

Ephemerides (geocentric):
Date (UTC) HH   RA             Dec           delta  r     elong  mag " sig PA
---- --------  ------------   ------------  ------ ------ -----  --- --------
2026 08 16 02  23 40 32.870   -13 22 07.24  .61507 1.5789 150.9 20.8 27.0  46
2026 08 16 03  23 40 34.841   -13 22 37.38  .61495 1.5789 151.0 20.8 28.0  46
2026 08 16 04  23 40 36.810   -13 23 07.54  .61483 1.5788 151.0 20.8 29.0  46
2026 08 16 05  23 40 38.775   -13 23 37.70  .61471 1.5788 151.0 20.8 30.1  46
2026 08 16 06  23 40 40.737   -13 24 07.89  .61460 1.5788 151.1 20.8 31.1  46
2026 08 16 07  23 40 42.696   -13 24 38.08  .61448 1.5788 151.1 20.8 32.2  46
2026 08 16 08  23 40 44.652   -13 25 08.30  .61436 1.5788 151.1 20.8 33.3  46
2026 08 16 09  23 40 46.604   -13 25 38.52  .61425 1.5787 151.2 20.8 34.4  46
2026 08 16 10  23 40 48.554   -13 26 08.77  .61413 1.5787 151.2 20.7 35.6  46
2026 08 16 11  23 40 50.500   -13 26 39.02  .61402 1.5787 151.2 20.7 36.7  46
2026 08 16 12  23 40 52.443   -13 27 09.29  .61390 1.5787 151.2 20.7 37.9  46
2026 08 16 13  23 40 54.382   -13 27 39.58  .61378 1.5787 151.3 20.7 39.1  46
2026 08 16 14  23 40 56.319   -13 28 09.88  .61367 1.5786 151.3 20.7 40.3  46
2026 08 16 15  23 40 58.252   -13 28 40.19  .61355 1.5786 151.3 20.7 41.5  46
2026 08 16 16  23 41 00.182   -13 29 10.52  .61344 1.5786 151.4 20.7 42.8  46
2026 08 16 17  23 41 02.109   -13 29 40.87  .61333 1.5786 151.4 20.7 44.0  46
2026 08 16 18  23 41 04.033   -13 30 11.22  .61321 1.5786 151.4 20.7 45.3  46
2026 08 16 19  23 41 05.954   -13 30 41.59  .61310 1.5785 151.5 20.7 46.6  46
2026 08 16 20  23 41 07.871   -13 31 11.98  .61298 1.5785 151.5 20.7 47.9  46
2026 08 16 21  23 41 09.785   -13 31 42.38  .61287 1.5785 151.5 20.7 49.3  46
2026 08 16 22  23 41 11.696   -13 32 12.79  .61276 1.5785 151.5 20.7 50.7  46
2026 08 16 23  23 41 13.604   -13 32 43.21  .61265 1.5785 151.6 20.7 52.0  46
2026 08 17 00  23 41 15.509   -13 33 13.65  .61253 1.5785 151.6 20.7 53.4  46
2026 08 17 01  23 41 17.410   -13 33 44.11  .61242 1.5784 151.6 20.7 54.9  46
2026 08 17 02  23 41 19.308   -13 34 14.57  .61231 1.5784 151.7 20.7 56.3  46
2026 08 17 03  23 41 21.203   -13 34 45.05  .61220 1.5784 151.7 20.7 57.7  46
2026 08 17 04  23 41 23.095   -13 35 15.55  .61209 1.5784 151.7 20.7 59.2  46
2026 08 17 05  23 41 24.984   -13 35 46.05  .61198 1.5784 151.8 20.7 60.7  46
2026 08 17 06  23 41 26.869   -13 36 16.57  .61187 1.5784 151.8 20.7 62.2  46
2026 08 17 07  23 41 28.752   -13 36 47.11  .61176 1.5783 151.8 20.7 63.8  46
2026 08 17 08  23 41 30.631   -13 37 17.65  .61164 1.5783 151.8 20.7 65.3  46
2026 08 17 09  23 41 32.507   -13 37 48.21  .61154 1.5783 151.9 20.7 66.9  46
2026 08 17 10  23 41 34.379   -13 38 18.79  .61143 1.5783 151.9 20.7 68.5  46
2026 08 17 11  23 41 36.249   -13 38 49.37  .61132 1.5783 151.9 20.7 70.1  46
2026 08 17 12  23 41 38.115   -13 39 19.97  .61121 1.5783 152.0 20.7 71.7  46
2026 08 17 13  23 41 39.978   -13 39 50.58  .61110 1.5782 152.0 20.7 73.4  46
2026 08 17 14  23 41 41.838   -13 40 21.20  .61099 1.5782 152.0 20.7 75.0  46
2026 08 17 15  23 41 43.695   -13 40 51.84  .61088 1.5782 152.0 20.7 76.7  46
2026 08 17 16  23 41 45.549   -13 41 22.49  .61077 1.5782 152.1 20.7 78.4  46
2026 08 17 17  23 41 47.399   -13 41 53.15  .61067 1.5782 152.1 20.7 80.1  46
2026 08 17 18  23 41 49.247   -13 42 23.82  .61056 1.5782 152.1 20.7 81.9  46
2026 08 17 19  23 41 51.091   -13 42 54.50  .61045 1.5781 152.2 20.7 83.6  46
2026 08 17 20  23 41 52.932   -13 43 25.20  .61034 1.5781 152.2 20.7 85.4  46
2026 08 17 21  23 41 54.769   -13 43 55.91  .61024 1.5781 152.2 20.7 87.2  46
2026 08 17 22  23 41 56.604   -13 44 26.63  .61013 1.5781 152.3 20.7 89.0  46
2026 08 17 23  23 41 58.435   -13 44 57.37  .61002 1.5781 152.3 20.7 90.9  46
2026 08 18 00  23 42 00.264   -13 45 28.11  .60992 1.5781 152.3 20.7 92.7  46
2026 08 18 01  23 42 02.089   -13 45 58.87  .60981 1.5781 152.3 20.7 94.6  45